Location: Caserta
(41.0670°N, 14.3330°E)
Time: 04:46:36
(UTC+02:00)

STARLINK-1341 - Pass Details

Date: 03 October 2020
Orbit: 549 x 550 km, 53.0° (Epoch: 20 October)

Event Time Altitude Azimuth Distance (km) Brightness Sun altitude
Exits shadow 05:53:29 13° 309° (NW) 1,654 5.6 -13.7°
Maximum altitude 05:55:45 18° 347° (NNW) 1,369 5.6 -13.2°
Drops below altitude 10° 05:58:41 10° 32° (NNE) 1,826 6.8 -12.7°
Sets 06:01:30 0° 51° (NE) 2,721 8.2 -12.2°
